Location: Krakow
(50.0212°N, 19.9423°E)
Time: 23:11:27
(UTC+02:00)

NOAA 18 - Pass Details

Date: 15 August 2024
Orbit: 837 x 859 km, 98.9° (Epoch: 19 September)

Event Time Altitude Azimuth Distance (km) Brightness Sun altitude
Exits shadow 21:53:04 24° 122° (ESE) 1,701 6.2 -16.0°
Maximum altitude 21:55:59 44° 65° (ENE) 1,178 5.8 -16.3°
Drops below altitude 10° 22:01:13 10° 355° (N) 2,507 8.4 -16.9°
Sets 22:03:42 0° 350° (N) 3,448 9.4 -17.2°
